SCP
0 0 0 0 0 0 0 0 0 0 0 0 0 0 0 0 0 0 0 0 0 0 0 0 0 0 0 0 0 0 0 0 0 0 0 0 0 0 0 0 0 0 0 0 0
0 0 0 0 0 0 0 0 0 0 0 0 0 0 0 0 0 0 0 0 0 0 0 0 0 0 0 0 0 0 0 0 0 0 0 0 0 0 0 0 0 0 0 0 0
0 0 0 0 0 0 0 0 0 0 0 0 0 0 0 0 0 0 0 0 0 0 0 0 0 0 0 0 0 0 0 0 0 0 0 0 0 0 0 0 0 0 -0 0 0
0 0 0 0 0 0 0 0 0 0 0 0 0 0 0 0 0 0 0 0 0 0 0 0 0 0 0 0 0 0 0 0 0 0 0 0 0 0 0 0 0 0 0 0 -0
0 0 0 0 0 0 0 0 0 0 0 0 0 0 0 0 0 0 0 0 0 0 0 0 0 0 0 0 0 0 0 0 0 0 0 0 0 0 0 0 0 0 0 0 -0
0 0 0 0 0 0 0 0 0 0 0 0 0 0 0 0 0 0 0 0 0 0 0 0 0 0 0 0 0 0 0 0 0 0 0 0 0 0 0 0 0 0 0 0 0
0 0 0 0 0 0 0 0 0 0 0 0 0 0 0 0 0 0 0 0 0 0 0 0 0 0 0 0 0 0 0 0 0 0 0 0 0 0 0 0 0 0 0 0 0
0 0 0 0 0 0 0 0 0 0 0 0 0 0 0 0 0 0 0 0 0 0 0 0 0 0 0 0 0 0 0 0 0 0 0 0 0 0 0 0 0 0 0 0 0
0 0 0 0 0 0 0 0 0 0 0 0 0 0 0 0 0 0 0 0 0 0 0 0 0 0 0 0 0 0 0 0 0 0 0 0 0 0 0 0 0 0 0 0 0
0 0 0 0 -0 0 0 0 0 0 0 0 0 0 0 0 0 0 0 0 0 0 0 0 0 0 0 0 0 0 0 0 0 0 0 0 0 0 0 0 0 0 0 0 0
0 0 0 0 -0 0 0 0 0 0 0 0 0 0 0 0 0 0 0 0 0 0 0 0 0 0 0 0 0 0 0 0 0 0 0 0 0 0 0 0 0 0 0 0 0
0 0 0 0 0 0 0 0 0 0 0 0 0 0 0 0 0 0 0 0 0 0 0 0 0 0 0 0 0 0 0 0 0 0 0 0 0 0 0 0 0 0 0 0 0
0 0 0 0 0 0 0 0 0 0 0 0 0 0 0 0 0 0 0 0 0 0 0 0 0 0 0 0 0 0 0 0 0 0 0 0 0 0 0 0 0 0 0 0 0
0 0 0 0 0 0 0 0 0 0 0 0 0 0 0 0 0 0 0 0 0 0 0 0 0 0 0 0 0 0 0 0 0 0 0 0 0 0 0 0 0 0 0 0 0
0 -0 0 0 0 0 0 0 0 0 0 0 0 0 0 0 0 0 0 0 0 0 0 0 0 0 0 0 0 0 0 0 0 0 0 0 0 0 0 0 0 0 0 0 0
-0 -0 0 0 0 0 -0 0 0 0 0 0 0 0 0 0 0 0 0 0 0 0 0 0 0 0 0 0 0 0 0 0 0 0 0 0 0 0 0 0 0 0 0 0 0
-0 -0 0 0 0 -0 -0 0 0 0 0 0 0 0 0 0 0 0 0 0 0 0 0 0 0 0 0 0 0 0 0 0 0 0 0 0 0 0 0 0 0 0 0 0 0
-0 -0 0 0 -0 -0 0 0 0 0 0 0 0 0 0 0 0 0 0 0 0 0 0 0 0 0 0 0 0 0 0 0 0 0 0 0 0 0 0 0 0 0 0 0 0
-0 0 0 -0 -0 -0 0 0 0 0 0 0 0 0 0 0 0 0 0 0 0 0 0 0 0 0 0 0 0 0 0 0 0 0 0 0 0 0 0 0 0 0 0 0 0
0 0 0 -0 0 0 0 0 0 0 0 0 0 0 0 0 0 0 0 0 0 0 0 0 0 0 0 0 0 0 0 0 0 0 0 0 0 0 0 0 0 0 0 0 0
0 -0 0 -0 0 0 0 0 0 0 0 0 0 0 0 0 0 0 0 0 0 0 0 0 0 0 0 0 0 0 0 0 0 0 0 0 0 0 0 0 0 0 0 0 0
-0 -0 0 0 0 0 0 0 0 0 0 0 -0 0 0 0 0 0 0 0 0 0 0 0 0 0 0 0 0 0 0 0 0 0 0 0 0 0 0 0 0 0 0 0 0
0 -0 0 0 0 0 0 0 0 0 0 0 0 0 0 0 0 0 0 0 0 0 0 0 0 0 0 0 0 0 0 0 0 0 0 0 0 0 0 0 0 0 0 0 0
-0 0 -0 -0 0 0 0 0 0 0 0 0 0 -0 0 0 0 0 0 0 0 0 0 0 0 0 0 0 0 0 0 0 0 0 0 0 0 0 0 0 0 0 0 0 0
-0 -0 0 0 -0 0 0 0 0 0 0 0 0 0 0 0 0 0 0 0 0 0 0 0 0 0 0 0 0 0 0 0 0 0 0 0 0 0 0 0 0 0 0 0 0
0 -0 -0 -0 0 0 0 0 0 0 0 0 0 0 0 0 0 0 0 0 0 0 0 0 0 0 0 0 0 0 0 0 0 0 0 0 0 0 0 0 0 0 0 0 0
0 0 0 0 0 0 -0 0 0 0 0 0 0 0 0 0 0 0 0 0 0 0 0 0 0 0 0 0 0 0 0 0 0 0 0 0 0 0 0 0 0 0 0 0 0
Wind_Speed_500mb
10 20 24 26 30 28 26 27 25 32 28 25 22 23 25 28 27 29 30 28 25 28 30 19 20 16 11 2 5 3 7 9 6 9 7 11 11 5 6 6 6 6 2 4 8
17 17 23 28 24 26 32 30 30 28 35 28 25 22 25 28 31 29 30 34 33 30 31 18 15 7 4 2 5 9 8 7 3 2 5 13 9 12 8 8 8 6 11 9 11
21 24 20 25 27 23 22 32 31 30 30 33 26 21 19 20 22 22 31 27 27 28 27 23 11 1 4 3 9 6 15 8 7 3 3 11 9 8 8 7 8 6 10 14 16
18 22 18 20 23 29 23 24 30 30 32 25 31 25 17 12 11 8 15 19 21 21 19 20 11 8 6 9 3 11 7 8 11 7 7 8 8 7 9 5 8 3 7 10 16
18 17 19 19 21 26 27 22 28 28 30 26 26 27 22 18 23 12 6 4 9 14 17 18 17 12 11 6 5 9 4 5 2 6 5 7 2 3 9 8 13 12 8 8 13
19 16 16 17 20 24 28 26 26 30 28 25 23 28 31 28 24 28 36 12 6 9 17 21 12 16 9 7 7 2 4 2 2 6 4 6 4 3 1 7 10 11 10 10 12
21 17 15 15 20 24 26 21 24 29 25 20 20 28 31 33 15 15 17 21 15 6 14 20 17 12 18 10 6 4 6 5 9 5 4 8 9 13 7 14 14 13 11 13 13
22 18 14 14 16 16 26 23 21 26 27 19 21 26 19 29 37 15 9 11 19 8 11 19 22 13 5 19 7 8 4 13 7 9 1 9 25 8 6 6 7 13 14 17 17
24 17 13 13 13 10 20 12 16 34 24 18 15 19 11 20 27 36 10 7 16 13 11 17 23 11 10 17 8 6 11 18 9 2 3 10 13 4 12 13 9 8 11 16 14
24 18 13 10 10 11 16 10 9 26 29 14 13 12 18 12 21 35 37 17 9 19 11 12 10 14 12 24 27 16 19 6 11 5 5 7 18 7 13 16 14 17 17 20 22
23 22 14 10 10 11 8 12 7 10 15 10 6 7 2 17 20 20 24 28 11 12 12 11 17 29 34 31 17 14 11 11 6 5 2 9 17 11 11 14 18 22 22 21 21
22 20 15 9 7 10 4 8 4 4 3 27 13 21 13 18 12 24 36 25 16 16 13 10 26 15 10 17 26 23 22 14 6 7 2 1 13 10 10 13 20 21 22 23 22
22 18 10 5 1 9 7 7 4 4 4 10 27 12 21 20 13 28 38 26 20 16 22 17 4 15 15 19 25 25 33 28 12 8 7 4 7 3 15 29 28 29 23 28 30
20 14 9 7 4 9 7 6 1 1 5 3 15 12 18 11 9 23 38 30 11 19 19 10 3 15 14 21 23 25 6 19 25 13 12 6 5 5 12 24 35 33 35 34 35
21 16 13 6 5 13 11 7 4 11 7 3 10 6 13 17 9 9 35 23 22 16 11 9 12 13 11 10 17 5 17 16 7 15 12 10 6 7 10 17 20 28 32 33 35
22 17 15 6 12 15 12 7 5 4 9 1 4 7 12 7 5 11 16 9 11 13 8 6 3 5 4 7 4 25 20 18 11 4 13 22 16 4 4 9 16 23 29 30 34
22 19 14 8 12 12 19 4 4 5 4 5 3 4 16 12 7 7 21 18 14 14 19 11 6 5 7 15 8 4 24 6 4 7 15 5 8 11 12 15 12 15 24 28 31
23 19 15 17 16 19 9 2 0 3 4 6 5 8 13 5 0 5 23 13 1 2 19 20 11 10 8 4 15 16 18 9 15 10 8 2 12 10 10 7 7 14 20 26 32
26 23 28 20 17 11 1 3 1 3 10 8 7 11 7 8 1 6 3 8 6 1 11 12 7 3 7 2 8 11 8 4 12 4 6 14 9 6 2 5 9 20 27 29 30
19 31 24 14 9 4 4 4 4 4 11 7 7 3 11 10 9 4 4 4 3 4 8 4 12 5 3 3 13 3 10 6 1 12 8 9 13 15 19 12 15 23 26 26 29
12 9 10 8 4 9 6 4 6 13 10 6 7 5 7 12 12 5 4 7 8 9 4 6 4 6 6 5 6 8 9 7 6 2 6 10 8 20 20 14 18 16 16 20 24
6 5 6 8 9 6 4 4 10 8 16 10 7 15 8 6 8 6 6 8 15 5 5 6 8 10 7 5 4 4 5 4 7 8 2 2 9 24 18 11 10 7 14 19 23
8 7 8 13 5 5 3 6 5 17 11 12 6 9 7 9 8 10 7 7 14 7 4 3 4 10 7 3 5 3 6 8 10 3 6 5 9 17 1 16 8 12 19 24 27
6 3 8 16 13 7 6 6 8 8 4 7 9 6 4 11 12 9 5 10 11 13 16 5 7 3 10 7 4 9 10 13 11 6 11 2 20 12 12 18 15 20 24 25 22
6 5 4 4 9 10 5 3 7 13 16 22 11 18 5 9 9 11 11 5 17 18 9 6 9 10 15 10 6 7 11 10 7 10 9 13 14 20 7 4 10 14 18 17 22
6 10 10 8 3 2 5 3 4 3 11 9 13 23 25 12 10 6 3 10 6 12 7 6 6 4 5 10 11 4 6 7 6 5 3 7 6 6 10 7 11 15 12 7 22
10 17 8 4 1 2 3 5 4 2 11 11 8 16 24 14 17 18 27 22 13 5 6 6 9 2 4 8 4 4 8 12 5 6 7 8 6 5 7 6 12 16 13 9 28
Wind_Direction_500mb
293 260 251 256 262 258 267 262 258 243 244 251 259 266 272 268 269 263 272 272 267 264 274 293 294 292 308 225 209 174 232 215 201 177 138 153 190 170 177 137 165 188 103 163 185
332 316 265 253 259 261 258 270 261 259 245 248 253 265 272 275 269 260 256 267 268 261 272 290 293 300 252 240 198 227 237 195 85 161 165 174 187 165 187 172 200 210 238 236 202
313 320 299 260 252 260 275 255 266 263 251 241 245 256 270 281 295 255 254 263 265 259 262 268 276 312 166 251 190 197 233 167 165 118 121 158 164 165 191 197 234 228 206 236 217
307 311 305 279 264 259 266 258 256 255 258 247 242 247 258 260 237 201 225 242 257 249 246 246 215 175 181 200 209 225 220 192 156 152 126 151 136 175 217 71 114 110 230 255 233
298 298 297 282 275 266 263 269 253 252 258 252 241 235 243 238 235 191 135 190 245 242 225 209 194 161 208 181 174 242 190 192 133 167 142 137 132 301 242 229 252 281 270 274 244
284 295 305 286 274 280 267 263 261 251 250 247 245 226 226 240 251 247 243 270 278 247 216 201 202 185 160 179 197 67 216 154 193 216 224 190 158 283 55 214 242 266 281 287 270
270 288 278 307 270 276 254 261 261 246 234 236 242 225 229 228 244 240 240 247 255 244 223 208 198 181 162 144 151 124 203 202 214 198 178 189 219 222 250 268 289 292 293 299 292
258 266 272 296 280 278 240 251 246 233 216 221 229 219 234 239 230 208 173 215 222 220 205 193 188 185 178 131 102 160 216 223 136 179 172 213 240 133 321 318 301 295 296 290 297
245 248 269 275 287 266 225 235 234 219 208 216 223 207 235 227 233 217 181 192 196 187 172 175 172 156 185 165 160 177 204 211 193 151 134 222 244 117 56 42 15 346 309 292 315
235 233 256 261 282 246 234 251 312 220 211 204 206 196 239 209 211 221 225 206 165 168 146 166 175 187 216 191 207 177 200 186 204 75 191 188 238 164 345 348 326 309 310 332 338
221 214 227 230 277 239 241 224 197 178 236 168 165 240 59 187 206 202 197 198 174 156 169 181 201 202 203 207 211 164 142 157 112 68 227 220 256 278 336 319 319 337 339 348 352
209 201 209 212 267 239 247 177 127 106 172 204 213 236 266 181 172 194 189 187 181 179 144 168 223 205 200 198 186 199 198 192 115 63 257 55 278 332 347 28 30 19 18 17 22
197 198 188 204 161 192 180 198 220 356 82 277 209 266 226 203 200 187 186 188 180 163 185 204 108 170 165 166 190 198 216 219 216 113 87 284 238 73 82 50 48 44 42 37 34
183 177 177 166 149 164 160 147 218 190 8 278 189 256 210 211 212 185 188 186 169 175 164 218 75 174 168 179 199 204 192 165 153 168 233 330 235 122 73 60 51 44 46 43 40
168 170 166 148 126 151 158 159 338 182 214 55 179 237 198 194 155 178 185 191 184 141 166 148 170 148 178 180 182 174 163 152 166 198 190 210 255 120 138 61 57 48 46 43 45
164 153 154 130 125 134 135 138 131 138 219 207 244 207 174 174 132 142 186 163 148 136 82 113 85 169 119 92 133 134 113 85 78 101 230 222 211 140 94 113 86 66 52 42 43
154 149 145 149 123 122 144 133 152 246 10 171 188 168 185 149 115 207 184 173 166 159 172 151 120 119 130 106 108 154 150 125 151 212 252 128 166 64 110 92 70 53 52 47 44
144 138 124 112 106 122 114 351 126 290 280 317 293 178 180 139 347 139 176 157 112 161 150 167 170 177 156 168 176 177 196 183 190 195 169 136 185 124 91 21 47 66 63 55 47
143 123 83 73 121 143 236 60 43 267 320 293 182 168 142 116 331 138 111 157 113 36 167 152 109 24 48 35 173 171 181 92 103 91 174 143 80 102 180 68 85 71 60 49 40
142 104 81 89 122 157 70 83 318 279 316 265 50 38 155 143 148 81 105 24 7 353 283 135 117 24 83 50 45 177 132 135 41 156 184 164 171 160 177 110 97 66 53 46 37
113 77 71 88 44 54 71 2 312 323 319 352 7 150 107 133 126 58 35 111 359 334 308 114 92 102 184 31 152 141 178 76 87 12 161 151 125 136 126 99 87 72 52 39 29
84 70 89 20 57 54 72 6 337 320 350 19 21 38 50 88 88 111 112 10 347 299 74 24 91 106 77 354 342 68 97 102 207 170 61 26 112 136 105 109 113 82 39 28 23
74 80 11 6 103 94 60 5 331 17 9 21 66 34 4 53 119 104 99 303 21 41 75 137 38 116 111 52 3 110 123 109 88 42 170 177 128 164 16 20 110 39 15 12 13
103 83 33 59 70 109 132 4 336 7 55 27 29 68 56 61 43 111 103 34 42 57 45 70 73 64 170 97 114 157 156 167 149 158 152 171 127 187 327 312 357 7 7 6 17
76 80 72 46 52 95 92 68 7 7 3 19 45 33 41 59 47 47 57 77 47 12 37 62 95 84 76 52 72 98 144 156 164 151 195 141 138 176 253 43 353 342 352 13 18
107 134 87 83 110 106 36 61 98 34 11 13 75 52 59 71 38 99 43 37 31 360 46 28 105 99 69 34 29 100 114 128 160 181 163 167 248 140 69 21 5 349 329 329 352
116 127 105 52 14 21 38 164 118 187 50 54 83 82 64 46 68 75 77 74 65 35 47 53 133 88 119 359 348 266 215 198 161 197 154 185 131 81 81 63 330 308 307 313 333
Wind_Speed_850mb
10 20 24 26 30 28 26 27 25 32 28 25 22 23 25 28 27 29 30 28 25 28 30 19 20 16 11 2 5 3 7 9 6 9 7 11 11 5 6 6 6 6 2 4 8
17 17 23 28 24 26 32 30 30 28 35 28 25 22 25 28 31 29 30 34 33 30 31 18 15 7 4 2 5 9 8 7 3 2 5 13 9 12 8 8 8 6 11 9 11
21 24 20 25 27 23 22 32 31 30 30 33 26 21 19 20 22 22 31 27 27 28 27 23 11 1 4 3 9 6 15 8 7 3 3 11 9 8 8 7 8 6 10 14 16
18 22 18 20 23 29 23 24 30 30 32 25 31 25 17 12 11 8 15 19 21 21 19 20 11 8 6 9 3 11 7 8 11 7 7 8 8 7 9 5 8 3 7 10 16
18 17 19 19 21 26 27 22 28 28 30 26 26 27 22 18 23 12 6 4 9 14 17 18 17 12 11 6 5 9 4 5 2 6 5 7 2 3 9 8 13 12 8 8 13
19 16 16 17 20 24 28 26 26 30 28 25 23 28 31 28 24 28 36 12 6 9 17 21 12 16 9 7 7 2 4 2 2 6 4 6 4 3 1 7 10 11 10 10 12
21 17 15 15 20 24 26 21 24 29 25 20 20 28 31 33 15 15 17 21 15 6 14 20 17 12 18 10 6 4 6 5 9 5 4 8 9 13 7 14 14 13 11 13 13
22 18 14 14 16 16 26 23 21 26 27 19 21 26 19 29 37 15 9 11 19 8 11 19 22 13 5 19 7 8 4 13 7 9 1 9 25 8 6 6 7 13 14 17 17
24 17 13 13 13 10 20 12 16 34 24 18 15 19 11 20 27 36 10 7 16 13 11 17 23 11 10 17 8 6 11 18 9 2 3 10 13 4 12 13 9 8 11 16 14
24 18 13 10 10 11 16 10 9 26 29 14 13 12 18 12 21 35 37 17 9 19 11 12 10 14 12 24 27 16 19 6 11 5 5 7 18 7 13 16 14 17 17 20 22
23 22 14 10 10 11 8 12 7 10 15 10 6 7 2 17 20 20 24 28 11 12 12 11 17 29 34 31 17 14 11 11 6 5 2 9 17 11 11 14 18 22 22 21 21
22 20 15 9 7 10 4 8 4 4 3 27 13 21 13 18 12 24 36 25 16 16 13 10 26 15 10 17 26 23 22 14 6 7 2 1 13 10 10 13 20 21 22 23 22
22 18 10 5 1 9 7 7 4 4 4 10 27 12 21 20 13 28 38 26 20 16 22 17 4 15 15 19 25 25 33 28 12 8 7 4 7 3 15 29 28 29 23 28 30
20 14 9 7 4 9 7 6 1 1 5 3 15 12 18 11 9 23 38 30 11 19 19 10 3 15 14 21 23 25 6 19 25 13 12 6 5 5 12 24 35 33 35 34 35
21 16 13 6 5 13 11 7 4 11 7 3 10 6 13 17 9 9 35 23 22 16 11 9 12 13 11 10 17 5 17 16 7 15 12 10 6 7 10 17 20 28 32 33 35
22 17 15 6 12 15 12 7 5 4 9 1 4 7 12 7 5 11 16 9 11 13 8 6 3 5 4 7 4 25 20 18 11 4 13 22 16 4 4 9 16 23 29 30 34
22 19 14 8 12 12 19 4 4 5 4 5 3 4 16 12 7 7 21 18 14 14 19 11 6 5 7 15 8 4 24 6 4 7 15 5 8 11 12 15 12 15 24 28 31
23 19 15 17 16 19 9 2 0 3 4 6 5 8 13 5 0 5 23 13 1 2 19 20 11 10 8 4 15 16 18 9 15 10 8 2 12 10 10 7 7 14 20 26 32
26 23 28 20 17 11 1 3 1 3 10 8 7 11 7 8 1 6 3 8 6 1 11 12 7 3 7 2 8 11 8 4 12 4 6 14 9 6 2 5 9 20 27 29 30
19 31 24 14 9 4 4 4 4 4 11 7 7 3 11 10 9 4 4 4 3 4 8 4 12 5 3 3 13 3 10 6 1 12 8 9 13 15 19 12 15 23 26 26 29
12 9 10 8 4 9 6 4 6 13 10 6 7 5 7 12 12 5 4 7 8 9 4 6 4 6 6 5 6 8 9 7 6 2 6 10 8 20 20 14 18 16 16 20 24
6 5 6 8 9 6 4 4 10 8 16 10 7 15 8 6 8 6 6 8 15 5 5 6 8 10 7 5 4 4 5 4 7 8 2 2 9 24 18 11 10 7 14 19 23
8 7 8 13 5 5 3 6 5 17 11 12 6 9 7 9 8 10 7 7 14 7 4 3 4 10 7 3 5 3 6 8 10 3 6 5 9 17 1 16 8 12 19 24 27
6 3 8 16 13 7 6 6 8 8 4 7 9 6 4 11 12 9 5 10 11 13 16 5 7 3 10 7 4 9 10 13 11 6 11 2 20 12 12 18 15 20 24 25 22
6 5 4 4 9 10 5 3 7 13 16 22 11 18 5 9 9 11 11 5 17 18 9 6 9 10 15 10 6 7 11 10 7 10 9 13 14 20 7 4 10 14 18 17 22
6 10 10 8 3 2 5 3 4 3 11 9 13 23 25 12 10 6 3 10 6 12 7 6 6 4 5 10 11 4 6 7 6 5 3 7 6 6 10 7 11 15 12 7 22
10 17 8 4 1 2 3 5 4 2 11 11 8 16 24 14 17 18 27 22 13 5 6 6 9 2 4 8 4 4 8 12 5 6 7 8 6 5 7 6 12 16 13 9 28
Wind_Direction_850mb
293 260 251 256 262 258 267 262 258 243 244 251 259 266 272 268 269 263 272 272 267 264 274 293 294 292 308 225 209 174 232 215 201 177 138 153 190 170 177 137 165 188 103 163 185
332 316 265 253 259 261 258 270 261 259 245 248 253 265 272 275 269 260 256 267 268 261 272 290 293 300 252 240 198 227 237 195 85 161 165 174 187 165 187 172 200 210 238 236 202
313 320 299 260 252 260 275 255 266 263 251 241 245 256 270 281 295 255 254 263 265 259 262 268 276 312 166 251 190 197 233 167 165 118 121 158 164 165 191 197 234 228 206 236 217
307 311 305 279 264 259 266 258 256 255 258 247 242 247 258 260 237 201 225 242 257 249 246 246 215 175 181 200 209 225 220 192 156 152 126 151 136 175 217 71 114 110 230 255 233
298 298 297 282 275 266 263 269 253 252 258 252 241 235 243 238 235 191 135 190 245 242 225 209 194 161 208 181 174 242 190 192 133 167 142 137 132 301 242 229 252 281 270 274 244
284 295 305 286 274 280 267 263 261 251 250 247 245 226 226 240 251 247 243 270 278 247 216 201 202 185 160 179 197 67 216 154 193 216 224 190 158 283 55 214 242 266 281 287 270
270 288 278 307 270 276 254 261 261 246 234 236 242 225 229 228 244 240 240 247 255 244 223 208 198 181 162 144 151 124 203 202 214 198 178 189 219 222 250 268 289 292 293 299 292
258 266 272 296 280 278 240 251 246 233 216 221 229 219 234 239 230 208 173 215 222 220 205 193 188 185 178 131 102 160 216 223 136 179 172 213 240 133 321 318 301 295 296 290 297
245 248 269 275 287 266 225 235 234 219 208 216 223 207 235 227 233 217 181 192 196 187 172 175 172 156 185 165 160 177 204 211 193 151 134 222 244 117 56 42 15 346 309 292 315
235 233 256 261 282 246 234 251 312 220 211 204 206 196 239 209 211 221 225 206 165 168 146 166 175 187 216 191 207 177 200 186 204 75 191 188 238 164 345 348 326 309 310 332 338
221 214 227 230 277 239 241 224 197 178 236 168 165 240 59 187 206 202 197 198 174 156 169 181 201 202 203 207 211 164 142 157 112 68 227 220 256 278 336 319 319 337 339 348 352
209 201 209 212 267 239 247 177 127 106 172 204 213 236 266 181 172 194 189 187 181 179 144 168 223 205 200 198 186 199 198 192 115 63 257 55 278 332 347 28 30 19 18 17 22
197 198 188 204 161 192 180 198 220 356 82 277 209 266 226 203 200 187 186 188 180 163 185 204 108 170 165 166 190 198 216 219 216 113 87 284 238 73 82 50 48 44 42 37 34
183 177 177 166 149 164 160 147 218 190 8 278 189 256 210 211 212 185 188 186 169 175 164 218 75 174 168 179 199 204 192 165 153 168 233 330 235 122 73 60 51 44 46 43 40
168 170 166 148 126 151 158 159 338 182 214 55 179 237 198 194 155 178 185 191 184 141 166 148 170 148 178 180 182 174 163 152 166 198 190 210 255 120 138 61 57 48 46 43 45
164 153 154 130 125 134 135 138 131 138 219 207 244 207 174 174 132 142 186 163 148 136 82 113 85 169 119 92 133 134 113 85 78 101 230 222 211 140 94 113 86 66 52 42 43
154 149 145 149 123 122 144 133 152 246 10 171 188 168 185 149 115 207 184 173 166 159 172 151 120 119 130 106 108 154 150 125 151 212 252 128 166 64 110 92 70 53 52 47 44
144 138 124 112 106 122 114 351 126 290 280 317 293 178 180 139 347 139 176 157 112 161 150 167 170 177 156 168 176 177 196 183 190 195 169 136 185 124 91 21 47 66 63 55 47
143 123 83 73 121 143 236 60 43 267 320 293 182 168 142 116 331 138 111 157 113 36 167 152 109 24 48 35 173 171 181 92 103 91 174 143 80 102 180 68 85 71 60 49 40
142 104 81 89 122 157 70 83 318 279 316 265 50 38 155 143 148 81 105 24 7 353 283 135 117 24 83 50 45 177 132 135 41 156 184 164 171 160 177 110 97 66 53 46 37
113 77 71 88 44 54 71 2 312 323 319 352 7 150 107 133 126 58 35 111 359 334 308 114 92 102 184 31 152 141 178 76 87 12 161 151 125 136 126 99 87 72 52 39 29
84 70 89 20 57 54 72 6 337 320 350 19 21 38 50 88 88 111 112 10 347 299 74 24 91 106 77 354 342 68 97 102 207 170 61 26 112 136 105 109 113 82 39 28 23
74 80 11 6 103 94 60 5 331 17 9 21 66 34 4 53 119 104 99 303 21 41 75 137 38 116 111 52 3 110 123 109 88 42 170 177 128 164 16 20 110 39 15 12 13
103 83 33 59 70 109 132 4 336 7 55 27 29 68 56 61 43 111 103 34 42 57 45 70 73 64 170 97 114 157 156 167 149 158 152 171 127 187 327 312 357 7 7 6 17
76 80 72 46 52 95 92 68 7 7 3 19 45 33 41 59 47 47 57 77 47 12 37 62 95 84 76 52 72 98 144 156 164 151 195 141 138 176 253 43 353 342 352 13 18
107 134 87 83 110 106 36 61 98 34 11 13 75 52 59 71 38 99 43 37 31 360 46 28 105 99 69 34 29 100 114 128 160 181 163 167 248 140 69 21 5 349 329 329 352
116 127 105 52 14 21 38 164 118 187 50 54 83 82 64 46 68 75 77 74 65 35 47 53 133 88 119 359 348 266 215 198 161 197 154 185 131 81 81 63 330 308 307 313 333